Regional Weather Roundup
Issued by NWS

Home | Current Version | Previous Version | Graphics & Text | Print | Product List | Glossary On
Versions: 1 2 3 4 5 6 7 8 9 10 11 12 13 14 15 16 17 18 19 20 21 22 23 24 25 26 27 28 29 30 31 32 33 34 35 36 37 38 39 40 41 42 43 44 45 46 47 48 49 50
000
ASUS43 KMPX 011810
RWRMN
WEATHER ROUNDUP FOR MINNESOTA
NATIONAL WEATHER SERVICE TWIN CITIES/CHANHASSEN MN
100 PM CDT WED JUL 01 2015


NOTE: "FAIR" INDICATES FEW OR NO CLOUDS BELOW 12,000 FEET WITH NO
SIGNIFICANT WEATHER AND/OR OBSTRUCTIONS TO VISIBILITY. N/A MEANS
CURRENT SKY AND/OR WEATHER CONDITIONS ARE NOT AVAILABLE.

MNZ060>063-068>070-011900-
   Twin Cities Metro

CITY           SKY/WX    TMP DP  RH WIND       PRES   REMARKS
TWIN CITIES    PTSUNNY   64  51  62 SE5       30.02S
6HR MIN TEMP:  59; 6HR MAX TEMP:  64;

ST PAUL        FAIR      64  48  56 VRB3      30.02F
CRYSTAL        FAIR      67  44  43 E6        30.01S
BLAINE         PTSUNNY   72  46  40 MISG      30.02S
LAKEVILLE      FAIR      63  52  67 E5        30.02S
EDEN PRAIRIE   FAIR      64  49  57 E5        30.01S
6HR MIN TEMP:  59; 6HR MAX TEMP:  64;

SOUTH ST PAUL  FAIR      64  49  59 SE3       30.02S
LAKE ELMO      FAIR      68  50  52 S3        30.03S
$$
MNZ001>005-007-008-013>017-022>024-027-028-011900-
   Northwest Minnesota

CITY           SKY/WX    TMP DP  RH WIND       PRES   REMARKS
BEMIDJI        PTSUNNY   76  58  54 CALM      29.97S
HALLOCK        FAIR      77  55  47 S5        29.94S
ROSEAU         FAIR      77  57  50 CALM      29.96S
WARROAD        FAIR      73  61  64 E3        29.97R
THIEF RVR FALL FAIR      75  57  53 S3        29.96F
CROOKSTON      FAIR      75  61  60 W7        29.96S
FOSSTON        FAIR      73  61  64 W3        29.98S
DETROIT LAKES  FAIR      73  59  60 SW8       30.00S
MOORHEAD       FAIR      73  61  64 SE9       29.97F
PARK RAPIDS    CLOUDY    72  59  63 SW10      29.99S
MAHNOMEN       MOCLDY    73  60  63 S7        29.98S
$$
MNZ006-009>011-018-025>026-011900-
   North Central Minnesota

CITY           SKY/WX    TMP DP  RH WIND       PRES   REMARKS
BAUDETTE       FAIR      76  53  44 SW5       29.96S
FLAG ISLAND    FAIR      70  61  73 S7        29.95S
INTL FALLS     FAIR      73  51  46 CALM      29.97S
WASKISH        FAIR      75  61  60 W6        29.97F
BIG FORK       FAIR     N/A N/A N/A SW3       29.98S
LONGVILLE      PTSUNNY   73  57  56 CALM      29.99F
GRAND RAPIDS   PTSUNNY   70  54  56 S3        30.01S
CRANE LAKE     FAIR      72  52  49 SW3       30.00S
ORR            PTSUNNY   72  50  46 CALM      29.96F
COOK           FAIR      72  54  53 W3        30.00S
WALKER         MOCLDY    73  59  61 S7        29.98S
$$
MNZ012-019>021-037-011900-
   Northeast Minnesota

CITY           SKY/WX    TMP DP  RH WIND       PRES   REMARKS
DULUTH         FAIR      69  53  56 SW5       30.02S
6HR MIN TEMP:  52; 6HR MAX TEMP:  69;

ELY            CLOUDY    68  50  52 CALM      30.00S
HIBBING        CLOUDY    70  54  56 VRB3      30.00F
EVELETH        FAIR      72  55  56 W8        30.01
DULUTH HARBOR  FAIR      64  57  77 E7        30.02F
TWO HARBORS    FAIR      70  55  60 S7        30.00F
SILVER BAY     FAIR      68  52  56 S9        30.00S
GRAND MARAIS     N/A     53  46  77 SW6       30.03S
G MARAIS ARPRT FAIR      64  43  45 SE7       30.03S
$$
MNZ029>031-032-039>041-046>048-054>057-064-011900-
   West Central Minnesota

CITY           SKY/WX    TMP DP  RH WIND       PRES   REMARKS
FERGUS FALLS   FAIR      70  57  64 S9        29.99S
WHEATON        FAIR      66  57  72 SE10G17   29.99S
MORRIS         FAIR      72  57  60 S9        29.98S
ALEXANDRIA     FAIR      69  50  50 SE7       30.02S
ELBOW LAKE     FAIR      70  58  67 SE9       29.99S
WADENA         FAIR      70  55  60 S7        30.00S
GLENWOOD       FAIR      70  52  52 SE6       30.02S
APPLETON       FAIR      68  55  64 SE7       29.98S
BENSON         FAIR      72  55  56 S8        29.99S
ORTONVILLE     FAIR      66  57  72 SE8       29.98S
MADISON        FAIR      66  57  72 SE9       29.98S
WILLMAR        FAIR      66  54  63 SE8       30.01S
$$
MNZ033>034-036-042>043-049>051-058-059-011900-
   Central Minnesota

CITY           SKY/WX    TMP DP  RH WIND       PRES   REMARKS
ST CLOUD       FAIR      69  45  41 SE9       30.02S
6HR MIN TEMP:  58; 6HR MAX TEMP:  69;

SAUK CENTRE    FAIR      68  51  55 S7        30.02S
PAYNESVILLE    FAIR      64  47  54 E8        30.02S
AITKIN         PTSUNNY   72  54  53 S5        30.00S
PINE RIVER       N/A     73  57  56 SE7       30.03S
BRAINERD       PTSUNNY   71  48  43 S6        30.01F
STAPLES        FAIR      72  48  43 S8        30.01S
LONG PRAIRIE   FAIR      68  54  60 SE6       30.02S
LITTLE FALLS   FAIR      70  46  43 SE7       30.01F
LITCHFIELD     FAIR      66  55  68 SE6       30.02S
BUFFALO        FAIR      64  50  61 E3        30.03S
MAPLE LAKE     FAIR      65  54  68 CALM      30.03S
$$
MNZ037-044-045-052-053-011900-
   East Central Minnesota

CITY           SKY/WX    TMP DP  RH WIND       PRES   REMARKS
PRINCETON      FAIR      73  48  40 SE6       30.02S
MORA           FAIR      70  50  49 S6        30.03F
CAMBRIDGE      FAIR      72  52  49 CALM      30.00S
RUSH CITY      FAIR      69  51  52 SE3       30.02S
MOOSE LAKE     FAIR      70  55  60 W3        30.00F
HINCKLEY       FAIR      70  50  49 CALM      30.02S
CLOQUET        FAIR      70  52  52 E3        30.01F
MCGREGOR       PTSUNNY   70  52  52 SE3       30.02S
$$
MNZ071>073-080-081-089-090-097-098-011900-
   Southwest Minnesota

CITY           SKY/WX    TMP DP  RH WIND       PRES   REMARKS
MONTEVIDEO     FAIR      70  57  64 S8        29.99S
GRANITE FALLS  PTSUNNY   66  56  70 SE7       30.00S
CANBY          CLOUDY    65  59  80 SE7       29.99S
MARSHALL       CLOUDY    66  55  68 SE9         N/A
REDWOOD FALLS  FAIR      66  57  72 E8        29.98F
OLIVIA         FAIR      63  54  72 E8        29.99S
PIPESTONE      FAIR      72  57  60 SE12      29.96S
WINDOM         FAIR      70  57  64 E9        29.98F
WORTHINGTON    FAIR      68  57  68 SE13      29.98S
JACKSON        FAIR      68  57  68 E15       29.98F
TRACY          CLOUDY    68  60  75 SE7       29.99R
SLAYTON        CLOUDY    66  58  75 E8        29.99S
$$
MNZ065>067-074>077-082>085-091>093-011900-
   South Central Minnesota

CITY           SKY/WX    TMP DP  RH WIND       PRES   REMARKS
MANKATO        CLOUDY    63  54  72 E7        30.00F
NEW ULM        FAIR      63  57  82 E7        29.99F
ST JAMES       FAIR      64  61  88 E5        30.00S
FAIRMONT       CLOUDY    64  55  72 E7        29.98F
GLENCOE        PTSUNNY   66  55  67 E7        30.00F
FARIBAULT      FAIR      63  54  72 E3        30.02S
OWATONNA       FAIR      63  52  67 E7        30.01F
WASECA         CLOUDY    63  52  67 NE3       30.02S
ALBERT LEA     FAIR      66  52  59 E6        30.00S
$$
MNZ078>079-086>088-094>096-011900-
   Southeast Minnesota

CITY           SKY/WX    TMP DP  RH WIND       PRES   REMARKS
ROCHESTER      PTSUNNY   61  51  70 E6        30.03R
6HR MIN TEMP:  54; 6HR MAX TEMP:  64; 6HR PCP: TRACE;

RED WING       FAIR      64  52  63 SE3       30.01S
STANTON        CLOUDY    63  52  67 E6        30.01R
DODGE CENTER   FAIR      63  50  63 E5        30.02S
WINONA         FAIR      70  52  52 E5        30.01S
AUSTIN         FAIR      64  52  63 E7        30.00S
PRESTON        FAIR      60  48  64 NE3       30.02R
$$
ABBREVIATIONS USED IN REMARKS
   TC - TEMPERATURES IN CELSIUS
  WCI - WIND CHILL INDEX
   HX - HEAT INDEX
  VSB - VISIBILITY
$$


USA.gov is the U.S. government's official web portal to all federal, state and local government web resources and services.